Weather History for Kinston, NC

Change the Weather History Date:

Wednesday, October 31, 2012

  Actual Average Record
Temperature  
Mean Temperature 48 °F -  
Max Temperature 59 °F 69 °F 86 °F (2004)
Min Temperature 37 °F 47 °F 29 °F (1966)
Degree Days  
Heating Degree Days 17    
Moisture  
Dew Point 36 °F    
Average Humidity 69    
Maximum Humidity 87    
Minimum Humidity 44    
Precipitation  
Precipitation 0.00 in - - ()
Sea Level Pressure  
Sea Level Pressure 29.70 in    
Wind  
Wind Speed 6 mph (WSW)    
Max Wind Speed 10 mph    
Max Gust Speed 20 mph    
Visibility 10 miles    
Events      
Averages and records for this station are not official NWS values.
T = Trace of Precipitation, MM = Missing Value Source: NWS Daily Summary

Daily Weather History Graph

Daily Weather History Graph

Search for Another Location

Airport:

Trip Planner

Search our weather history database for the weather conditions in past years. The results will help you decide how hot, cold, wet, or windy it might be!

Date:

Astronomy

Oct. 31, 2012 Rise Set
Actual Time 7:31 AM EDT 6:16 PM EDT
Civil Twilight 7:05 AM EDT 6:42 PM EDT
Nautical Twilight 6:35 AM EDT 7:12 PM EDT
Astronomical Twilight 6:05 AM EDT 7:42 PM EDT
Moon 7:30 PM EDT (10/31) 9:06 AM EDT (10/31)
Length of Visible Light 11h 37m
Length of Day
10h 44m
Full, 97% of the Moon is Illuminated
Oct 31
Full
Nov 6
Last Quarter
Nov 13
New
Nov 20
First Quarter
Nov 28
Full

Hourly Weather History & Observations

Time (EDT) Temp. Windchill Dew Point Humidity Pressure Visibility Wind Dir Wind Speed Gust Speed Precip Events Conditions
12:15 AM 44.6 °F 40.7 °F 35.6 °F 71% 29.63 in 10.0 mi SW 6.9 mph - N/A   Clear
12:35 AM 44.6 °F 41.4 °F 35.6 °F 71% 29.63 in 10.0 mi SW 5.8 mph - N/A   Clear
12:55 AM 44.6 °F 40.7 °F 35.6 °F 71% 29.64 in 10.0 mi SW 6.9 mph - N/A   Clear
1:15 AM 42.8 °F 38.0 °F 35.6 °F 76% 29.64 in 10.0 mi SW 8.1 mph - N/A   Clear
1:35 AM 42.8 °F 38.6 °F 35.6 °F 76% 29.64 in 10.0 mi SW 6.9 mph - N/A   Clear
1:55 AM 42.8 °F 38.6 °F 35.6 °F 76% 29.64 in 10.0 mi SW 6.9 mph - N/A   Clear
2:15 AM 42.8 °F 39.3 °F 35.6 °F 76% 29.65 in 10.0 mi SW 5.8 mph - N/A   Clear
2:35 AM 42.8 °F 38.6 °F 33.8 °F 70% 29.65 in 10.0 mi SW 6.9 mph - N/A   Clear
2:55 AM 41.0 °F 37.1 °F 33.8 °F 76% 29.66 in 10.0 mi SW 5.8 mph - N/A   Clear
3:15 AM 41.0 °F 35.8 °F 33.8 °F 76% 29.66 in 10.0 mi SW 8.1 mph - N/A   Clear
3:35 AM 41.0 °F 35.8 °F 33.8 °F 76% 29.66 in 10.0 mi SW 8.1 mph - N/A   Clear
3:55 AM 41.0 °F 37.1 °F 33.8 °F 76% 29.66 in 10.0 mi SSW 5.8 mph - N/A   Clear
4:15 AM 39.2 °F 35.0 °F 33.8 °F 81% 29.67 in 10.0 mi SSW 5.8 mph - N/A   Clear
4:35 AM 41.0 °F 36.4 °F 33.8 °F 76% 29.67 in 10.0 mi SSW 6.9 mph - N/A   Clear
4:55 AM 41.0 °F 36.4 °F 33.8 °F 76% 29.68 in 10.0 mi SW 6.9 mph - N/A   Clear
5:15 AM 41.0 °F 37.1 °F 33.8 °F 76% 29.68 in 10.0 mi SW 5.8 mph - N/A   Clear
5:35 AM 41.0 °F 38.0 °F 33.8 °F 76% 29.69 in 10.0 mi WSW 4.6 mph - N/A   Clear
5:55 AM 41.0 °F 37.1 °F 33.8 °F 76% 29.69 in 10.0 mi SW 5.8 mph - N/A   Clear
6:15 AM 39.2 °F 35.9 °F 33.8 °F 81% 29.69 in 10.0 mi SW 4.6 mph - N/A   Clear
6:35 AM 37.4 °F 33.8 °F 33.8 °F 87% 29.69 in 10.0 mi SW 4.6 mph - N/A   Clear
6:55 AM 39.2 °F 37.0 °F 33.8 °F 81% 29.69 in 10.0 mi WSW 3.5 mph - N/A   Clear
7:56 AM 39.2 °F - 35.6 °F 87% 29.71 in 10.0 mi Calm Calm - N/A   Clear
8:56 AM 42.8 °F 41.1 °F 37.4 °F 81% 29.71 in 10.0 mi SW 3.5 mph - N/A   Clear
9:56 AM 48.2 °F - 37.4 °F 66% 29.73 in 10.0 mi SW 9.2 mph - N/A   Clear
10:56 AM 50.0 °F - 37.4 °F 62% 29.72 in 10.0 mi WSW 8.1 mph - N/A   Clear
11:56 AM 53.6 °F - 37.4 °F 54% 29.70 in 10.0 mi WSW 9.2 mph - N/A   Clear
12:56 PM 57.2 °F - 37.4 °F 48% 29.68 in 10.0 mi SW 10.4 mph 18.4 mph N/A   Clear
1:56 PM 59.0 °F - 42.8 °F 55% 29.66 in 10.0 mi West 9.2 mph 19.6 mph N/A   Clear
2:56 PM 59.0 °F - 37.4 °F 45% 29.66 in 10.0 mi West 9.2 mph - N/A   Mostly Cloudy
3:56 PM 57.2 °F - 35.6 °F 44% 29.67 in 10.0 mi WNW 9.2 mph 18.4 mph N/A   Scattered Clouds
4:56 PM 57.2 °F - 37.4 °F 48% 29.68 in 10.0 mi WNW 8.1 mph - N/A   Scattered Clouds
5:56 PM 53.6 °F - 37.4 °F 54% 29.71 in 10.0 mi West 3.5 mph - N/A   Overcast
6:56 PM 53.6 °F - 39.2 °F 58% 29.73 in 10.0 mi WSW 3.5 mph - N/A   Overcast
8:56 PM 50.0 °F - 41.0 °F 71% 29.76 in 10.0 mi Calm Calm - N/A   Overcast
9:15 PM 50.0 °F - 41.0 °F 71% 29.76 in 10.0 mi Calm Calm - N/A   Mostly Cloudy
9:35 PM 50.0 °F - 41.0 °F 71% 29.77 in 10.0 mi WSW 3.5 mph - N/A   Mostly Cloudy
9:55 PM 51.8 °F - 39.2 °F 62% 29.78 in 10.0 mi West 4.6 mph - N/A   Scattered Clouds
10:15 PM 50.0 °F - 39.2 °F 66% 29.78 in 10.0 mi WSW 3.5 mph - N/A   Scattered Clouds
10:35 PM 50.0 °F - 39.2 °F 66% 29.79 in 10.0 mi West 4.6 mph - N/A   Scattered Clouds
10:55 PM 50.0 °F - 37.4 °F 62% 29.79 in 10.0 mi Calm Calm - N/A   Mostly Cloudy
11:15 PM 50.0 °F - 37.4 °F 62% 29.79 in 10.0 mi West 3.5 mph - N/A   Mostly Cloudy
11:35 PM 50.0 °F - 37.4 °F 62% 29.78 in 10.0 mi Calm Calm - N/A   Scattered Clouds
11:55 PM 46.4 °F 44.3 °F 37.4 °F 71% 29.79 in 10.0 mi WSW 4.6 mph - N/A   Clear